DECAYED
Showing default

HONGHU 1, 58554 (Decayed)

Orbit data source: Space-Track

HONGHU 1, 58554 was a payload satellite owned by Hongqing Keji (CN) in LEO that was launched on Fri, 08 Dec 2023 UTC via a ZHUQUE-2 launch vehicle from the Jiuquan Satellite Launch Center, China (JSC). Payload-class satellites include a variety of spacecraft equipped with specific instruments for various scientific and technological missions. These include communications satellites like Starlink; space stations such as the ISS; scientific satellites like the Hubble; Earth observation satellites from companies like Planet Labs, Umbra, and HawkEye 360; GPS; miniature CubeSats for education and research; and military/defense satellites.

Loading next visibility...
Identifier
58554, 2023-193B
Orbit
Decayed
Country
Flag of CNCN / PRC
Related business
Manufacturer
Changsha Tianyi
Mission
Decayed Commercial Technology
Bus & Motor
HQ, Unknown motor
Mass
~50 kg wet, ~50 kg dry
Launch date (UTC)
2023-12-08 (3 years ago)
Launch vehicle
ZHUQUE-2
Launch site
Jiuquan Satellite Launch Center, China (JSC)
Object type
Payload
Rocket body
Debris
Shape & HBR
Box + 2 Pan, 0.5 m
Radar Cross Section
0.255 m², Medium (>0.1 m² and < 1m²)

Expand to show TLE details & history
Last TLE update: 1 year ago

TLE from 1 year ago
0 HONGHU 1
1 58554U 23193B   25059.93597500  .16190085  25553-5  17629-3 0  9997
2 58554  97.2047  79.4662 0010152 234.7432 125.2924 16.50181166 69472
Epoch: 2025-02-28T22:27Z
TLE epoch observation values (Epoch: 2025-02-28T22:27:48.240Z)
Latitude
-0.00006°
Longitude
-56.47444°
Altitude
145.957 km
Speed
7.816 km/s
True Right ascension
05h 17m 51s
True Declination
0° 00' 00"
Sunlit
Object was in daylight at epoch
Visualization orbit readout
Latitude
Unknown
Longitude
Unknown
Altitude
Unknown
Speed
Unknown
Apparent Right ascension
Unknown
Apparent Declination
Unknown
Sunlit
N/A
Visualization observer readout
Local Sidereal Time
01:06:07
Azimuth
Unknown
Elevation
Unknown
Doppler factor
Unknown
Orbital elements
Apogee altitude
142.257 km
Perigee altitude
129.031 km
Semi-major axis
6,513.781 km
Eccentricity
0.00102
Inclination
97.2047°
RAAN
79.4662°
Arg. of periapsis
234.7432°
True anomaly
125.38728°
Mean anomaly
125.2924°
Eccentric anomaly
125.33985°
Mean motion
4.12851 °/min
Orbital period
87.2 mins
BSTAR
0.00017629
Loading maneuver chart data...
Computing Atmospheric mass density...
Loading historical data...
Loading historical data...
Loading historical data...
Loading historical data...
Loading historical data...
Loading historical data...
Loading historical data...
Other satellites on launch #193 in the year 2023 (2023-12-08 UTC)

Documentation

Showing up to 5 results
|